sat.trackr.live / text

‹ back to catalog

STARLINK-2646

NORAD 48642 · 2021-044E

PAYLOAD ACTIVE UNKNOWN

§ Identity

Operator
Country
US
Launch date
2021-05-26
Launch site
AFETR
Launch vehicle
Mass (kg)
RCS (m²)

Purposes: comms

External: N2YO · Heavens-Above · Gunter

§ Orbital elements

Epoch: 2026-09-12T04:45:12.121344Z

Period
94.01 min
Inclination
53.1604°
Eccentricity
0.0000801
Mean motion
15.31702710 rev/d
Perigee alt
470.2 km
Apogee alt
471.3 km
Semi-major
6,848.9 km
B*
1.3646e-4
RAAN
325.9756°
Arg perigee
78.3803°
Mean anomaly
281.7288°
Rev number
29,240

§ Raw data

STARLINK-26461 48642U 21044E   26255.19805696  .00003872  00000+0  13646-3 0  99912 48642  53.1604 325.9756 0000801  78.3803 281.7288 15.31702710292400

JSON: /api/v1/satellites/48642 · /tle

For live sub-satellite position, see the globe view (requires WebGL).

§ Visibility from observer

Set your observer location to see the next 7 days of passes ≥ 10°. The values pass through the URL so the page stays shareable.

No JS? Fill the form by hand. The geolocation button needs JavaScript.